Flag for Germany Weather past 2 weeks in Landshut, Bavaria, Germany

Now
46 °F

Passing clouds.


Feels Like: 42 °F
Forecast: 33 / 41 °F
Wind: 8 mph from Southwest

Location: Muenchen Flughafen

Current Time: Mar 3, 2015 at 4:56:22 PM

Latest Report: Mar 3, 2015 at 4:00 PM


Visibility: 38 mi

Pressure: 30.19 "Hg

Humidity: 49%

Dew point: 28 °F

Location of LandshutLocation

Historic Weather in Landshut — Graph

°F

Landshut temperature yesterday

Maximum temperature yesterday: 47 °F (at 4:00 AM)
Minimum temperature yesterday: 35 °F (at 9:00 PM)
Average temperature yesterday: 43 °F

Past Weeks' High & Low Weather Summary

 TemperatureHumidityPressure
High47 °F (Feb 20, 4:00 PM)100% (Feb 16, 7:00 PM)30.80 "Hg (Feb 16, 7:00 PM)
Low16 °F (Feb 20, 6:00 AM)44% (Feb 27, 3:00 PM)29.50 "Hg (Feb 21, 2:00 PM)
Average34 °F87%30.08 "Hg
* Reported Feb 16 4:00 PM — Mar 3 4:00 PM, Landshut, Weather by CustomWeather, © 2015

Note: Actual official high and low records may vary slightly from our data, if they occured in-between our weather recording intervals... More about our weather records

Advertising

Landshut weather history for previous 24 hours

 ConditionsComfort  
Time TempWeatherWind HumidityBarometerVisibility
4:00 PM
Tue, Mar 3
46 °FPassing clouds.8 mph49%30.19 "Hg37 mi
3:00 PM46 °FScattered clouds.5 mph51%30.20 "Hg31 mi
2:00 PM45 °FScattered clouds.8 mph49%30.22 "Hg31 mi
1:00 PM44 °FScattered clouds.7 mph52%30.24 "Hg31 mi
12:00 PM44 °FPassing clouds.10 mph56%30.26 "Hg31 mi
11:00 AM42 °FPassing clouds.10 mph60%30.27 "Hg31 mi
10:00 AM40 °FPassing clouds.9 mph67%30.27 "Hg31 mi
9:00 AM37 °FPassing clouds.8 mph74%30.26 "Hg31 mi
8:00 AM34 °FPartly sunny.6 mph76%30.26 "Hg31 mi
7:00 AM33 °FPartly sunny.7 mph78%30.24 "Hg31 mi
6:00 AM33 °FPassing clouds.7 mph76%30.24 "Hg31 mi
5:00 AM33 °FPassing clouds.6 mph76%30.24 "Hg37 mi
3:00 AM35 °FClear.8 mph76%30.22 "Hg37 mi
2:00 AM35 °FClear.10 mph78%30.21 "Hg37 mi
1:00 AM36 °FClear.9 mph79%30.18 "Hg31 mi
12:00 AM37 °FOvercast.8 mph80%30.13 "Hg31 mi
11:00 PM
Mon, Mar 2
37 °FOvercast.9 mph82%30.08 "Hg31 mi
10:00 PM38 °FOvercast.10 mph82%30.03 "Hg31 mi
9:00 PM35 °FSprinkles. Low clouds.6 mph94%29.99 "Hg16 mi
8:00 PM38 °FOvercast.8 mph88%29.96 "Hg19 mi
7:00 PM36 °FOvercast.5 mph91%29.96 "Hg19 mi
6:00 PM40 °FPassing clouds.8 mph81%29.90 "Hg28 mi
5:00 PM41 °FOvercast.6 mph83%29.88 "Hg28 mi
4:00 PM41 °FSprinkles. Overcast.10 mph85%29.86 "Hg28 mi
Weather by CustomWeather, © 2015

See weather overviewHow to use our weather pages